[Date Prev][Date Next][Thread Prev][Thread Next] - [Date Index][Thread Index][Author Index]
2 Line ISS Keps 7-31
- Subject: [sarex] 2 Line ISS Keps 7-31
- From: "Dave Larsen PhD" <doc@xxxxxxxxxxx>
- Date: Sat, 31 Jul 2004 05:16:01 -0700
ISS
1 25544U 98067A 04213.44715278 .00018146 00000-0 14944-3 0 3414
2 25544 51.6329 99.8918 0006029 62.6897 291.4578 15.70438645325264
----
Via the sarex mailing list at AMSAT.ORG courtesy of AMSAT-NA.
To unsubscribe, send "unsubscribe sarex" to Majordomo@amsat.org
AMSAT Home